Wind_Speed
32 33 34 35 37 39 40 42 44 45 46 47 47 48 49 49 49 50 50 51 52 52 53 54 55 56 57 59 61 63 65 67 68 68 71 73 75 77 78 79 81 82 82
33 34 35 36 38 40 42 43 44 45 46 47 47 48 49 49 50 50 51 52 53 53 55 55 56 58 60 62 65 67 69 71 73 74 74 77 79 81 82 83 84 85 85
34 35 36 37 39 41 42 43 45 46 46 47 48 49 49 50 51 52 52 53 54 55 56 58 59 62 64 66 69 71 73 75 77 78 78 79 81 82 83 83 84 84 83
35 36 37 38 40 41 43 44 45 46 47 48 48 49 50 51 51 52 53 54 55 57 59 61 63 66 68 71 73 75 77 78 80 81 81 81 81 82 82 82 81 79 78
36 37 38 39 41 43 44 45 46 46 47 48 49 50 50 51 52 53 54 56 58 59 62 64 67 69 72 74 76 78 79 80 81 83 83 82 80 79 78 77 75 72 70
36 38 39 41 42 43 44 45 46 47 48 49 49 50 51 52 54 55 57 58 60 63 65 68 70 73 75 77 78 79 81 82 83 83 81 79 77 75 73 71 69 66 62
37 39 40 41 42 43 44 45 46 47 48 48 49 50 52 54 55 57 59 61 64 67 69 71 74 75 77 79 79 79 80 81 81 80 77 74 71 68 67 65 62 59 53
38 39 40 41 42 43 44 45 46 47 48 49 50 52 54 55 57 60 62 65 68 70 72 74 76 77 78 79 79 79 78 77 75 73 71 68 66 64 62 59 54 49 44
38 39 40 41 42 43 44 45 46 47 48 50 51 53 55 58 60 63 66 69 70 72 74 76 77 78 79 80 79 78 75 72 69 67 65 63 61 58 55 51 46 42 37
38 39 40 41 42 43 44 45 47 48 49 51 53 55 58 61 64 67 69 72 73 75 76 77 78 78 78 78 77 74 70 67 65 62 61 58 54 51 47 43 40 37 34
38 39 40 41 42 44 45 46 48 49 51 53 55 58 61 64 66 69 72 74 76 77 77 78 78 77 76 74 72 69 66 64 61 59 55 51 47 43 40 37 35 33 30
39 40 41 42 43 44 45 47 49 51 53 56 58 61 64 66 69 71 73 76 78 79 79 78 76 74 72 70 68 65 63 60 57 53 49 44 40 36 34 32 31 29 27
39 40 41 42 43 44 46 48 51 53 56 59 62 64 66 69 71 73 75 77 78 79 78 76 74 71 69 66 63 60 58 55 51 47 42 37 34 32 30 29 28 26 24
39 40 41 42 44 46 49 51 54 57 59 62 65 67 69 71 73 75 77 78 78 78 76 73 71 68 65 61 57 54 52 49 45 41 36 33 31 30 29 27 25 23 22
40 41 42 44 46 49 51 54 57 59 63 65 68 70 72 74 76 78 79 79 78 77 74 71 67 63 59 55 52 49 46 42 39 35 32 30 29 28 26 24 22 21 20
41 43 45 47 49 52 55 57 60 63 65 68 71 74 75 77 78 79 79 78 76 74 70 66 62 58 53 50 46 43 40 37 34 32 30 28 27 25 23 22 20 19 18
43 45 48 50 53 56 58 61 63 65 68 71 74 76 77 78 79 79 77 75 72 69 66 61 57 52 48 45 42 38 36 34 32 30 28 26 24 23 21 20 19 18 17
46 48 51 54 56 59 62 64 67 69 71 73 75 77 78 79 78 77 74 72 68 64 60 56 51 47 43 40 38 35 33 32 30 28 26 24 22 20 19 18 18 17 16
49 51 54 57 60 62 65 68 70 73 74 75 76 77 77 77 75 72 70 67 62 58 54 50 45 41 39 36 34 33 31 29 27 25 23 22 20 19 18 17 17 16 15
52 54 57 60 63 65 68 71 73 75 76 76 76 76 75 73 70 67 64 60 56 52 47 43 39 37 35 33 31 30 28 26 24 23 21 20 19 18 17 17 16 15 15
55 57 61 63 66 68 71 73 75 76 76 75 74 73 72 70 66 62 57 54 50 45 41 38 35 34 32 30 29 27 26 24 22 21 20 18 17 17 16 16 15 15 14
58 61 63 66 68 70 73 74 75 75 73 72 72 71 68 65 60 56 51 48 44 41 38 36 33 31 30 28 27 25 24 22 20 19 18 17 17 16 16 15 15 15 15
61 63 65 67 71 73 74 74 74 73 72 71 70 66 62 58 54 50 47 44 41 38 35 33 31 29 28 27 25 24 22 20 19 18 18 17 16 16 16 15 15 15 15
63 65 68 71 73 73 74 73 72 71 70 68 64 60 56 53 50 47 44 40 37 34 33 31 28 27 26 24 23 21 20 19 18 17 17 16 16 16 16 15 15 15 15
65 68 71 73 73 73 72 70 70 69 66 62 58 54 51 49 46 43 39 36 33 31 29 27 26 25 23 22 20 19 18 17 17 17 17 17 17 17 16 16 16 15 15
67 70 72 72 72 71 70 69 67 64 60 55 52 50 47 44 41 38 35 32 30 28 26 24 23 22 21 20 19 18 18 18 18 18 18 18 18 18 17 17 17 17 17
Wind_Direction
279 281 282 284 285 286 287 289 291 293 294 295 296 297 298 299 299 300 300 300 301 301 301 301 301 300 300 300 299 299 299 298 297 297 296 295 294 293 291 290 289 288 287
281 282 283 284 285 286 288 291 293 294 295 296 297 298 299 299 300 300 300 301 301 302 302 302 301 301 301 301 301 301 300 299 299 298 297 296 295 294 293 292 291 290 289
283 284 284 285 286 288 290 292 293 295 296 297 298 298 299 300 300 301 301 302 302 302 302 302 302 302 302 302 302 301 301 300 299 299 298 297 296 295 294 293 292 291 290
284 284 285 286 288 289 291 293 295 296 297 298 298 299 299 300 301 301 302 302 303 303 303 303 303 303 303 303 303 302 301 301 300 299 298 297 296 296 295 294 293 292 291
286 286 287 288 289 291 293 294 296 297 297 298 298 299 300 301 301 302 302 303 303 304 304 304 304 305 304 304 303 303 302 301 300 300 299 299 298 297 296 295 295 294 293
287 288 289 290 291 292 293 295 296 297 297 298 299 300 301 301 301 302 303 304 304 305 305 305 306 305 305 304 304 303 302 302 302 301 301 301 300 299 298 297 297 296 295
288 288 290 291 292 293 294 295 296 297 298 298 299 300 301 302 302 303 304 305 306 307 307 307 307 306 305 305 304 304 303 303 303 303 303 302 301 300 300 299 298 297 296
289 289 290 291 292 293 294 295 296 297 298 299 300 301 302 303 303 304 305 306 307 308 308 308 308 307 306 305 305 305 305 304 303 303 303 303 302 302 301 300 299 298 295
289 290 291 292 293 294 295 296 297 298 299 300 301 302 303 304 304 305 306 307 308 308 308 308 308 307 307 306 306 306 305 305 304 303 303 304 303 302 301 300 299 298 295
290 291 292 292 293 295 296 297 298 299 300 301 302 303 304 305 306 306 307 308 308 309 309 309 308 308 307 307 306 306 306 305 304 304 304 303 302 301 300 299 298 297 295
292 292 293 293 294 296 297 297 298 299 301 302 303 304 305 306 307 307 308 308 309 309 310 309 309 308 307 307 307 306 306 305 305 305 304 303 302 300 299 298 297 297 295
293 293 294 295 296 297 298 299 300 301 302 303 304 305 306 307 307 308 309 309 310 310 310 310 309 308 308 307 306 306 305 305 305 305 304 303 301 300 299 298 297 296 294
294 294 295 296 297 298 299 300 301 303 304 305 305 306 307 308 308 309 309 310 310 310 310 309 309 308 308 307 306 305 305 305 305 304 303 302 300 299 299 299 298 295 293
295 296 297 298 299 300 301 302 303 304 305 306 306 307 308 309 309 309 310 310 310 310 309 309 308 308 307 306 305 305 305 305 304 303 301 300 299 298 298 298 296 294 291
297 298 299 300 301 302 303 304 305 306 307 307 308 308 309 309 310 310 310 310 310 310 309 309 308 308 306 306 305 305 305 304 303 302 300 298 298 297 296 295 294 294 291
299 300 301 301 302 303 304 305 306 307 308 308 309 309 310 310 310 311 311 311 310 310 309 309 308 307 307 306 306 306 305 304 302 301 299 298 297 296 294 293 292 291 289
300 301 302 303 304 304 305 306 307 308 309 309 309 310 310 311 311 311 311 310 310 309 309 308 308 307 306 306 305 305 304 303 302 300 298 297 296 294 292 290 290 288 287
302 303 303 304 305 306 307 307 308 309 309 309 310 310 310 311 311 311 310 310 310 309 308 308 307 306 305 305 304 303 303 302 300 298 297 296 294 292 290 288 288 286 284
303 304 305 306 306 307 308 308 309 310 310 310 310 310 311 311 311 311 310 310 310 309 308 307 306 305 305 304 303 302 302 301 299 297 295 293 291 289 287 287 286 284 282
305 305 306 307 308 308 309 309 310 310 311 311 311 311 311 311 311 311 310 310 310 309 308 306 304 304 304 303 302 302 301 300 297 295 294 291 289 287 286 285 283 282 280
306 307 308 308 309 309 310 311 311 311 312 312 312 313 312 312 312 311 310 310 310 309 308 306 304 304 303 303 301 300 299 298 295 294 292 289 287 285 285 283 281 279 278
307 308 309 310 310 311 311 311 312 312 312 312 313 313 313 313 313 312 311 310 309 308 307 305 304 303 302 301 300 298 297 295 292 291 289 287 285 284 283 282 280 278 276
308 309 310 310 311 311 312 312 312 312 312 313 313 313 313 313 314 313 311 310 308 306 305 304 303 302 301 300 299 297 295 292 289 289 287 285 284 283 282 281 279 278 276
309 310 311 311 312 312 312 312 312 312 313 313 313 313 313 314 314 313 311 309 307 305 304 304 303 302 301 299 297 295 293 289 287 287 285 283 283 283 282 280 278 277 275
310 311 311 312 312 313 313 313 313 313 313 313 313 313 314 314 314 313 311 309 307 306 304 304 303 301 299 298 295 293 291 288 287 285 283 282 281 281 281 279 278 276 275
311 312 313 313 313 313 313 313 313 313 312 313 313 313 314 314 314 313 312 310 308 307 305 303 302 302 300 297 294 292 290 289 288 285 283 281 280 280 279 277 276 276 275
Height
5734 5732 5730 5727 5725 5722 5718 5715 5711 5707 5703 5698 5693 5689 5684 5679 5674 5668 5663 5658 5652 5647 5641 5635 5629 5623 5617 5611 5605 5598 5591 5584 5580 5577 5568 5560 5552 5544 5538 5531 5525 5519 5514
5725 5723 5721 5718 5715 5712 5708 5705 5701 5696 5692 5687 5682 5678 5673 5667 5662 5657 5651 5646 5640 5634 5628 5622 5615 5609 5602 5595 5588 5581 5573 5565 5558 5554 5548 5539 5530 5521 5513 5506 5498 5491 5485
5716 5714 5712 5709 5705 5702 5698 5694 5690 5686 5681 5676 5671 5666 5661 5656 5650 5645 5639 5633 5627 5621 5614 5608 5601 5594 5586 5578 5571 5563 5554 5545 5536 5529 5525 5516 5507 5497 5488 5481 5473 5465 5458
5707 5705 5702 5699 5695 5692 5688 5684 5679 5675 5670 5665 5660 5655 5649 5644 5638 5632 5626 5620 5614 5607 5600 5593 5585 5577 5569 5561 5552 5543 5533 5524 5515 5506 5499 5492 5483 5473 5462 5455 5448 5441 5433
5698 5695 5692 5689 5685 5681 5677 5673 5668 5664 5659 5654 5648 5643 5637 5632 5626 5620 5614 5607 5601 5594 5586 5578 5570 5561 5551 5542 5532 5523 5512 5502 5492 5482 5474 5466 5458 5448 5439 5430 5423 5417 5411
5688 5685 5682 5678 5675 5671 5666 5662 5657 5652 5647 5642 5637 5631 5625 5619 5613 5606 5600 5593 5586 5579 5570 5562 5553 5543 5533 5523 5512 5502 5490 5479 5468 5458 5450 5441 5433 5424 5415 5407 5400 5394 5391
5678 5675 5671 5668 5664 5660 5655 5651 5646 5641 5636 5630 5625 5619 5613 5606 5600 5593 5585 5578 5571 5562 5553 5544 5534 5524 5512 5502 5492 5482 5471 5458 5446 5435 5427 5419 5411 5403 5394 5388 5381 5375 5371
5668 5664 5661 5657 5653 5649 5644 5639 5634 5629 5624 5618 5613 5606 5600 5593 5586 5578 5571 5563 5555 5546 5535 5525 5514 5504 5491 5480 5471 5461 5451 5440 5428 5417 5408 5400 5392 5384 5376 5370 5364 5360 5357
5657 5654 5650 5646 5642 5638 5633 5628 5623 5618 5612 5606 5600 5594 5587 5580 5571 5563 5554 5546 5538 5528 5518 5507 5495 5484 5473 5460 5449 5440 5431 5421 5410 5401 5392 5384 5376 5368 5361 5355 5351 5347 5345
5647 5643 5639 5635 5631 5626 5622 5616 5611 5606 5600 5594 5587 5580 5573 5565 5556 5547 5537 5529 5521 5512 5501 5489 5477 5464 5453 5440 5429 5419 5411 5403 5394 5386 5378 5369 5362 5355 5349 5343 5339 5336 5334
5636 5632 5628 5624 5620 5615 5610 5605 5599 5594 5588 5581 5575 5567 5559 5550 5541 5531 5520 5509 5500 5491 5481 5470 5458 5446 5434 5422 5411 5401 5392 5384 5377 5370 5363 5356 5349 5343 5339 5334 5330 5327 5325
5625 5622 5617 5613 5608 5603 5598 5593 5587 5581 5574 5567 5560 5552 5543 5534 5524 5514 5503 5491 5480 5470 5461 5450 5439 5427 5416 5405 5395 5385 5377 5368 5361 5355 5349 5343 5338 5333 5329 5326 5322 5319 5317
5615 5611 5606 5602 5597 5592 5586 5580 5574 5567 5560 5552 5544 5536 5527 5517 5507 5496 5486 5474 5462 5450 5440 5430 5420 5409 5398 5389 5379 5370 5362 5354 5348 5342 5337 5333 5329 5325 5321 5318 5315 5312 5310
5604 5599 5595 5590 5585 5580 5574 5567 5560 5553 5545 5536 5528 5519 5510 5500 5489 5478 5468 5457 5445 5433 5422 5413 5403 5392 5382 5373 5365 5356 5349 5342 5336 5331 5327 5324 5320 5317 5313 5310 5308 5306 5304
5593 5588 5584 5578 5573 5567 5561 5553 5546 5538 5528 5519 5510 5501 5491 5483 5472 5459 5447 5437 5425 5414 5403 5395 5385 5376 5367 5359 5351 5344 5337 5331 5326 5322 5318 5315 5312 5309 5306 5304 5302 5300 5298
5582 5577 5572 5566 5560 5554 5547 5540 5531 5522 5513 5502 5492 5482 5472 5462 5452 5441 5429 5417 5406 5395 5384 5376 5368 5360 5352 5345 5339 5333 5326 5321 5317 5313 5310 5307 5304 5302 5299 5297 5296 5294 5293
5570 5565 5559 5553 5547 5539 5532 5524 5517 5508 5497 5486 5475 5464 5452 5442 5431 5420 5409 5398 5388 5377 5368 5360 5352 5345 5339 5333 5327 5322 5317 5312 5308 5305 5302 5299 5297 5295 5293 5292 5290 5289 5288
5558 5552 5546 5539 5532 5524 5516 5508 5499 5490 5481 5471 5459 5446 5434 5423 5412 5401 5389 5380 5371 5361 5352 5345 5338 5332 5327 5322 5317 5312 5308 5304 5300 5297 5294 5292 5290 5289 5287 5286 5285 5284 5283
5545 5539 5532 5525 5517 5509 5500 5491 5481 5471 5461 5451 5440 5429 5416 5404 5394 5383 5371 5362 5354 5346 5338 5331 5325 5320 5315 5311 5307 5303 5299 5296 5292 5290 5287 5286 5284 5283 5281 5280 5279 5278 5278
5532 5525 5518 5510 5501 5492 5483 5473 5463 5452 5442 5431 5420 5409 5397 5386 5376 5366 5356 5347 5339 5331 5324 5318 5314 5309 5306 5302 5298 5295 5291 5288 5285 5283 5281 5279 5278 5277 5276 5275 5274 5273 5273
5518 5511 5503 5494 5485 5475 5465 5455 5444 5433 5422 5412 5401 5390 5378 5367 5358 5349 5340 5332 5325 5319 5313 5308 5304 5300 5296 5293 5290 5287 5284 5281 5279 5277 5275 5273 5272 5271 5270 5269 5269 5268 5268
5504 5496 5487 5478 5469 5459 5448 5437 5426 5415 5404 5393 5383 5372 5361 5350 5341 5333 5326 5319 5313 5307 5303 5298 5295 5291 5288 5285 5282 5279 5276 5274 5272 5270 5269 5268 5267 5266 5265 5264 5264 5263 5263
5489 5480 5471 5462 5452 5441 5430 5419 5408 5397 5386 5375 5365 5355 5345 5336 5327 5320 5313 5307 5301 5296 5292 5288 5285 5282 5279 5276 5274 5271 5269 5267 5266 5264 5263 5262 5261 5260 5259 5259 5258 5258 5258
5473 5464 5455 5445 5435 5424 5413 5402 5390 5380 5369 5358 5348 5339 5330 5322 5315 5308 5301 5295 5290 5286 5282 5279 5276 5274 5271 5268 5266 5264 5262 5261 5259 5258 5257 5256 5255 5255 5254 5253 5253 5253 5252
5458 5448 5439 5428 5417 5406 5395 5384 5373 5363 5352 5343 5334 5325 5317 5310 5303 5296 5290 5285 5280 5277 5273 5270 5268 5265 5263 5261 5259 5257 5256 5254 5253 5252 5251 5251 5250 5249 5248 5248 5247 5247 5247
5442 5432 5421 5410 5399 5388 5378 5367 5357 5346 5337 5328 5320 5312 5305 5298 5292 5286 5281 5276 5272 5268 5265 5263 5260 5258 5256 5254 5252 5251 5250 5248 5247 5246 5245 5244 5244 5243 5242 5242 5241 5241 5241